Temperature
17 17 16 16 16 16 16 16 16 16 16 16 16 15 15 15 15 15 15 15 15 15 15 15 15 15 14 14 14 14 14 14 14 13 13 12 12 12 12 12 12 12 12
17 16 16 16 16 16 16 16 16 16 16 16 16 16 15 15 15 15 15 15 15 15 15 15 15 14 14 14 14 14 14 14 14 13 12 12 12 12 12 11 11 11 11
17 16 16 16 16 16 16 16 16 16 16 16 16 16 16 15 15 15 15 15 15 15 15 15 15 14 14 14 14 14 14 14 13 13 13 12 12 12 11 11 11 11 11
16 16 16 16 16 16 16 16 16 16 16 16 16 16 15 15 15 15 15 15 15 15 15 15 15 14 14 14 14 14 14 13 13 13 13 12 12 12 11 11 11 11 11
16 16 16 16 16 16 16 16 16 16 16 15 15 15 15 15 15 15 15 15 15 15 15 15 14 14 14 14 14 14 13 13 13 13 12 12 12 12 11 11 11 11 10
16 16 16 16 16 16 16 16 15 15 15 15 15 15 15 15 15 15 15 15 15 15 14 14 14 14 14 14 14 14 13 13 13 13 12 12 12 12 11 11 11 11 10
16 16 16 16 16 16 16 15 15 15 15 15 15 15 15 15 15 15 15 15 14 14 14 14 14 14 14 14 14 13 13 13 13 13 12 12 12 12 11 11 11 10 10
16 16 16 16 16 16 15 15 15 15 15 15 15 15 15 15 15 15 14 14 14 14 14 14 14 14 14 14 13 13 13 13 13 12 12 12 12 12 11 11 11 10 10
16 16 16 16 15 15 15 15 15 15 15 15 15 15 14 14 14 14 14 14 14 14 14 14 14 14 13 13 13 13 13 13 12 12 12 12 12 11 11 11 11 10 10
16 16 16 15 15 15 15 15 15 15 15 14 14 14 14 14 14 14 14 14 14 14 14 14 14 14 13 13 13 13 13 12 12 12 12 11 11 11 11 11 10 10 10
16 16 16 15 15 15 15 15 15 15 14 14 14 14 14 14 14 14 14 14 14 14 13 13 13 13 13 13 13 13 12 12 12 12 11 11 11 11 11 10 10 10 10
16 16 15 15 15 15 15 15 15 15 14 14 14 14 14 14 13 13 13 13 13 13 13 13 13 13 13 12 12 12 12 12 11 11 11 11 11 11 10 10 10 9 9
16 16 15 15 15 15 15 15 15 14 14 14 14 14 14 14 13 13 13 13 13 13 13 13 13 13 12 12 12 12 12 11 11 11 11 11 11 10 10 10 9 9 9
15 15 15 15 15 15 15 15 14 14 14 14 14 14 14 13 13 13 13 13 13 13 13 13 13 12 12 12 12 12 12 11 11 11 11 10 10 10 10 9 9 9 8
15 15 15 15 14 14 14 14 14 14 14 14 14 14 14 14 14 13 13 13 13 13 13 13 12 12 12 12 12 11 11 11 11 11 10 10 10 10 9 9 8 8 8
15 15 15 15 14 14 14 14 14 14 14 14 14 14 14 13 13 13 13 13 13 12 12 12 12 12 12 12 11 11 11 11 11 10 10 10 9 9 9 8 8 8 7
15 15 15 14 14 14 14 14 14 14 13 13 13 13 13 13 13 13 13 12 12 12 12 12 12 11 11 11 11 11 11 11 10 10 10 10 9 9 8 8 8 7 7
15 14 14 14 14 14 14 14 14 14 13 13 13 13 13 13 12 12 12 12 12 12 11 11 11 11 11 11 11 11 10 10 10 10 10 9 9 8 8 8 7 7 6
14 14 14 14 14 14 14 14 13 13 13 13 13 12 12 12 12 12 12 11 12 11 11 11 11 11 11 10 10 10 10 10 10 9 9 9 8 8 8 7 7 6 6
14 14 14 14 14 14 13 13 13 13 13 13 13 13 12 12 12 11 11 11 11 11 11 11 10 10 10 10 10 9 9 9 9 9 9 8 8 8 7 7 6 6 6
14 14 14 14 14 13 13 13 13 13 13 12 13 13 12 12 12 11 11 11 11 11 11 10 10 10 10 9 9 9 9 9 9 9 8 8 8 7 7 6 6 6 5
13 13 13 13 13 13 13 13 12 12 12 12 12 12 12 12 11 11 11 11 11 10 10 10 10 9 9 9 9 9 9 8 8 8 8 8 7 7 6 6 6 5 5
13 13 13 13 13 13 12 12 12 12 12 12 12 11 11 11 11 11 11 10 10 10 10 10 9 9 9 9 8 8 8 8 8 8 7 7 7 6 6 5 5 5 4
12 12 12 12 12 12 12 12 12 12 12 11 11 11 11 11 11 10 10 10 10 10 9 9 9 9 8 8 8 8 8 7 7 7 7 6 6 6 5 5 5 4 4
12 12 12 12 12 12 12 12 11 11 11 11 11 11 11 10 10 10 10 10 10 9 9 9 9 8 8 8 8 8 7 7 7 7 6 6 6 6 5 5 4 4 3
11 11 11 11 11 11 11 11 11 11 11 11 10 10 10 10 10 10 9 9 9 9 9 9 8 8 8 8 7 7 7 7 6 6 6 6 5 5 5 4 4 3 3
Wind_Speed
7 6 6 5 5 5 4 4 4 4 5 5 4 4 5 5 5 4 3 2 2 2 3 4 3 3 3 2 2 3 3 4 5 3 3 4 4 4 5 7 9 9 9
6 6 7 6 6 6 5 5 4 4 4 5 4 4 4 4 5 5 4 3 2 2 3 4 4 3 3 3 3 3 3 3 5 5 3 3 3 3 3 3 6 7 8
5 6 6 6 6 6 6 5 5 4 4 4 5 4 4 4 5 6 5 4 3 3 3 4 4 4 4 3 3 3 3 3 4 5 3 2 2 2 3 2 4 5 6
5 5 5 5 5 5 5 5 5 5 5 4 4 4 4 4 4 5 5 4 4 4 4 4 4 5 4 4 3 3 3 4 3 4 3 2 2 1 2 2 2 1 2
6 5 4 4 4 4 4 4 4 4 4 3 3 3 3 3 3 3 3 4 4 5 5 5 6 8 8 6 4 3 4 3 3 3 3 2 2 2 1 0 1 1 2
6 5 4 4 4 5 4 4 4 4 4 3 3 3 4 3 5 6 3 2 3 5 5 6 6 7 9 10 10 9 7 4 3 3 2 2 1 1 1 1 1 1 1
6 6 5 4 4 4 5 5 4 4 4 4 3 4 5 5 7 6 4 2 2 3 4 5 5 6 8 5 6 6 6 6 5 3 3 2 1 1 1 1 1 2 2
7 6 6 5 5 5 5 5 5 4 4 4 4 5 5 5 6 6 4 2 2 2 3 4 4 5 5 6 5 4 3 2 3 3 3 2 2 3 2 2 2 2 2
7 6 7 6 6 6 6 5 4 5 4 4 4 5 5 5 6 6 4 2 2 2 2 3 4 4 6 8 5 5 4 3 6 8 8 7 8 8 7 4 2 2 1
7 7 7 7 7 6 6 5 5 5 4 4 4 5 5 5 6 7 5 2 3 3 2 3 5 5 6 7 5 4 4 4 4 4 4 4 5 5 5 4 2 2 1
6 7 7 7 7 7 6 5 5 5 5 4 4 3 4 5 6 6 6 2 3 3 3 2 3 6 6 6 5 3 4 4 4 4 3 3 2 2 3 4 4 3 2
7 7 6 6 6 6 6 6 6 6 5 5 4 4 3 4 6 6 6 5 3 3 3 3 3 7 6 5 4 4 4 4 3 3 2 2 2 2 2 3 4 5 5
7 7 6 6 5 6 6 6 6 6 5 5 5 4 3 3 4 7 7 6 5 3 3 5 6 7 6 4 3 4 3 2 2 2 2 2 2 3 3 3 4 5 5
7 7 6 6 5 6 5 5 5 5 5 5 5 4 4 4 4 4 4 4 6 4 4 5 6 6 4 4 3 2 1 2 3 3 3 2 2 2 2 2 1 1 1
6 6 6 5 5 5 5 4 5 4 5 5 4 4 5 5 5 8 7 5 5 5 5 3 3 3 3 2 2 2 2 2 2 2 3 2 2 3 2 2 2 1 2
6 6 5 5 5 4 4 3 3 3 6 7 7 6 4 5 7 9 9 9 9 10 6 4 4 4 4 4 3 3 3 3 3 3 3 3 3 3 2 2 2 2 2
5 5 5 5 5 5 5 5 4 2 4 5 6 7 6 8 9 8 8 8 8 9 4 4 4 4 4 4 4 4 4 3 3 3 3 3 3 3 3 2 2 2 2
5 6 6 5 5 5 5 5 5 5 4 2 3 6 8 9 9 9 9 8 4 4 3 3 4 4 3 3 3 3 3 3 3 3 3 3 3 3 2 2 2 2 2
5 4 5 5 5 5 5 5 5 6 5 4 3 3 6 8 9 9 9 4 5 4 3 3 3 3 3 3 3 3 3 3 3 3 3 3 3 3 2 2 2 2 2
5 7 6 5 5 5 5 5 5 6 6 5 5 5 5 5 4 5 5 4 4 4 4 4 3 3 3 2 2 2 3 3 3 2 2 2 2 2 3 3 2 2 2
5 6 7 6 5 5 5 6 6 6 6 6 5 6 9 6 6 6 6 5 5 5 4 4 3 3 3 3 3 3 3 3 3 3 3 3 3 3 2 2 2 2 2
5 5 5 6 5 5 5 5 5 6 6 6 5 6 10 6 5 5 5 4 4 4 4 4 3 3 4 3 3 3 3 3 3 3 3 2 3 3 3 3 2 2 2
5 5 5 5 5 6 6 5 5 5 6 6 6 6 7 6 5 6 5 4 4 4 6 6 5 4 5 5 6 5 4 4 3 3 3 3 3 3 3 3 3 3 2
5 6 6 5 5 5 5 5 5 5 6 6 6 6 6 6 5 6 5 5 5 5 6 6 6 6 6 6 6 6 6 7 6 6 5 4 3 3 3 3 3 3 2
5 5 5 5 5 5 5 5 5 5 6 6 6 6 6 6 5 5 5 5 6 5 6 6 6 7 8 7 7 7 8 8 7 6 6 4 3 3 3 3 3 2 2
4 4 4 4 4 5 5 5 5 5 6 6 6 6 6 5 5 5 5 5 5 5 6 6 7 8 8 8 9 9 10 9 8 7 7 5 3 3 3 3 3 3 2
Wind_Direction
165 162 154 149 153 151 153 173 174 174 167 161 171 169 164 156 146 134 132 117 121 137 118 108 100 90 91 75 68 65 62 86 111 107 101 108 102 100 107 119 118 106 93
162 161 163 160 164 169 170 180 184 178 169 162 156 152 146 147 142 140 142 138 136 122 116 119 120 108 91 77 79 83 83 87 117 119 109 107 112 123 122 121 122 118 110
164 167 168 171 176 176 174 177 185 177 167 156 153 159 157 150 143 142 147 150 136 117 110 110 116 116 111 100 94 88 87 89 101 119 122 107 101 110 99 89 100 113 116
166 175 176 178 178 173 174 172 177 165 157 161 160 158 153 148 143 143 146 148 137 120 107 98 95 104 109 112 109 104 102 96 97 108 117 112 98 91 98 102 80 86 93
168 181 177 169 162 152 154 159 155 147 147 151 145 131 125 124 126 124 132 140 136 127 124 115 99 98 95 98 101 97 102 106 111 110 115 100 85 68 80 136 129 123 79
167 170 160 158 151 150 159 148 140 138 134 128 132 132 126 120 107 96 88 112 136 143 144 135 130 119 111 103 96 89 92 107 120 118 121 128 136 139 134 112 131 112 52
165 164 163 159 151 154 148 131 130 133 133 134 138 127 124 124 122 111 93 79 86 118 130 131 134 133 133 130 115 103 85 84 101 122 120 139 147 168 146 118 112 110 134
164 164 159 158 150 147 142 147 148 140 140 142 141 138 133 140 141 136 126 122 103 117 134 140 138 138 139 135 132 125 116 95 110 109 120 115 92 75 95 133 153 118 88
166 167 160 157 153 155 156 160 153 142 141 144 143 143 143 151 160 155 144 144 139 122 104 107 124 132 132 135 137 139 133 123 104 111 112 101 89 79 73 68 66 97 93
166 166 165 164 159 161 162 158 149 141 145 146 147 150 154 156 166 167 162 160 150 141 121 105 106 124 130 138 149 146 146 153 141 125 110 105 98 89 82 80 100 113 125
158 157 162 163 160 159 156 150 149 150 155 156 153 155 159 158 165 169 161 163 160 152 143 131 118 131 140 142 139 145 155 152 152 143 137 135 121 98 78 74 77 102 114
150 152 156 158 161 159 154 153 151 151 156 161 167 171 160 152 154 164 162 167 150 144 146 138 135 134 129 129 132 134 127 116 124 129 127 131 129 123 107 87 91 90 90
151 154 157 155 156 156 157 159 159 160 165 169 172 170 159 140 137 144 148 151 147 136 137 134 140 142 135 127 140 143 136 134 136 142 154 163 156 144 109 87 84 90 79
160 160 161 159 158 158 160 163 165 169 174 176 175 173 169 159 153 152 147 138 127 126 131 134 134 144 140 140 136 153 171 163 158 165 166 163 142 130 135 136 138 136 102
167 164 164 160 160 163 164 167 176 179 180 180 180 174 170 178 183 171 166 167 163 159 147 144 149 147 149 159 171 172 170 170 171 174 164 162 153 148 153 147 136 132 134
167 166 161 159 161 164 155 134 98 149 160 162 166 171 173 170 165 166 167 167 164 162 154 164 171 173 179 182 183 185 188 190 190 180 171 171 169 167 166 156 145 156 172
171 167 161 163 169 172 168 163 154 106 112 137 158 166 165 160 155 156 156 155 163 164 167 176 180 184 187 188 187 184 190 190 180 169 170 171 168 167 161 167 172 178 194
173 173 167 167 172 177 178 176 170 166 159 146 147 156 158 159 157 152 144 132 149 174 181 178 183 184 180 180 180 180 175 166 163 167 168 166 166 169 171 171 175 188 198
175 175 173 169 170 176 176 175 171 169 167 160 148 144 155 151 148 152 151 160 172 181 186 182 177 174 173 173 174 170 164 164 164 161 164 165 171 172 176 175 173 183 183
184 185 181 175 173 171 172 175 175 174 172 169 169 163 152 143 152 166 179 185 179 180 180 182 175 167 165 164 159 156 154 153 155 158 163 166 165 159 164 167 163 162 176
177 179 180 177 179 179 178 182 180 176 175 174 172 168 167 171 175 177 184 188 182 180 179 175 168 165 164 160 157 158 160 162 160 160 163 163 159 162 164 160 160 163 165
178 181 184 183 181 182 182 182 179 177 175 169 159 161 171 173 173 174 179 184 180 176 169 165 164 163 164 168 171 169 168 168 164 160 158 153 149 152 152 154 154 160 166
182 182 186 182 179 179 184 183 178 174 171 167 163 164 174 180 175 176 178 179 171 165 161 159 159 158 158 162 161 162 169 173 164 160 162 160 158 158 157 161 161 158 168
186 185 187 183 177 177 182 180 176 171 166 165 165 168 175 180 177 176 173 168 162 160 159 160 160 162 160 158 155 158 161 161 157 154 154 159 165 167 165 161 162 169 179
186 182 182 181 179 177 178 175 173 170 169 169 169 172 175 177 174 169 164 160 156 155 155 156 157 159 160 160 160 162 161 160 162 163 157 157 165 165 158 158 168 173 180
187 180 178 175 173 175 177 178 179 175 173 170 170 171 172 172 169 163 159 158 158 156 156 156 157 158 161 164 164 163 163 163 163 163 160 155 161 165 160 163 165 168 174
Height
1520 1523 1525 1527 1529 1531 1533 1535 1537 1538 1540 1541 1542 1544 1545 1546 1548 1549 1550 1551 1552 1553 1553 1554 1554 1555 1555 1556 1557 1558 1559 1559 1560 1561 1562 1562 1562 1562 1562 1561 1560 1559 1558
1519 1521 1524 1526 1528 1530 1531 1533 1536 1537 1539 1540 1541 1543 1544 1546 1547 1548 1549 1551 1552 1552 1553 1554 1554 1555 1555 1556 1557 1558 1559 1559 1560 1561 1562 1563 1563 1562 1562 1562 1561 1561 1560
1517 1520 1522 1525 1527 1528 1530 1532 1534 1536 1537 1539 1540 1542 1544 1545 1546 1548 1549 1550 1551 1552 1553 1553 1554 1555 1555 1556 1557 1558 1558 1559 1560 1561 1562 1562 1563 1563 1563 1563 1562 1562 1561
1515 1518 1521 1523 1525 1527 1529 1531 1533 1534 1536 1538 1539 1541 1543 1544 1546 1547 1548 1549 1550 1551 1552 1553 1554 1554 1555 1556 1557 1557 1558 1559 1560 1561 1561 1562 1562 1563 1563 1563 1562 1562 1561
1514 1516 1519 1521 1523 1525 1527 1529 1531 1533 1535 1537 1538 1540 1542 1543 1545 1546 1548 1549 1550 1551 1552 1553 1554 1554 1555 1556 1556 1557 1558 1559 1560 1560 1561 1561 1562 1562 1562 1562 1562 1562 1562
1512 1515 1517 1519 1521 1524 1526 1528 1530 1531 1533 1535 1537 1539 1540 1542 1544 1546 1547 1548 1549 1550 1551 1552 1553 1554 1555 1555 1556 1557 1558 1558 1559 1559 1560 1560 1561 1561 1561 1561 1561 1561 1560
1511 1513 1515 1518 1520 1522 1524 1526 1528 1530 1532 1534 1536 1538 1539 1541 1543 1545 1546 1547 1548 1550 1551 1552 1553 1553 1554 1555 1556 1557 1557 1558 1559 1559 1559 1560 1560 1560 1560 1560 1560 1560 1560
1509 1511 1514 1516 1518 1520 1522 1524 1527 1529 1530 1533 1535 1536 1538 1540 1542 1543 1545 1546 1547 1548 1550 1551 1552 1552 1553 1554 1555 1556 1556 1557 1558 1558 1558 1559 1559 1559 1559 1559 1559 1559 1559
1507 1509 1511 1513 1516 1518 1520 1522 1525 1527 1529 1531 1533 1535 1536 1538 1540 1542 1543 1545 1546 1547 1548 1549 1550 1551 1552 1553 1554 1554 1555 1556 1556 1557 1557 1557 1557 1558 1558 1558 1557 1557 1557
1504 1507 1509 1511 1513 1516 1518 1520 1523 1525 1527 1529 1531 1533 1535 1536 1538 1540 1541 1543 1544 1545 1547 1548 1549 1550 1551 1552 1553 1553 1554 1554 1555 1555 1555 1556 1556 1556 1556 1556 1556 1555 1555
1502 1505 1507 1509 1511 1514 1516 1519 1521 1523 1525 1527 1529 1531 1533 1534 1536 1538 1539 1541 1542 1543 1545 1546 1547 1548 1549 1550 1551 1552 1552 1553 1553 1553 1554 1554 1554 1554 1554 1554 1554 1554 1553
1500 1502 1505 1507 1510 1512 1514 1517 1519 1521 1523 1525 1527 1529 1530 1532 1534 1536 1537 1539 1540 1541 1542 1544 1545 1546 1547 1548 1549 1550 1550 1551 1551 1552 1552 1552 1552 1552 1552 1552 1552 1551 1551
1497 1500 1503 1505 1507 1509 1512 1514 1516 1518 1520 1522 1524 1526 1528 1529 1531 1533 1535 1536 1538 1539 1540 1541 1543 1544 1545 1545 1546 1547 1548 1549 1549 1549 1550 1550 1550 1550 1550 1550 1550 1550 1549
1495 1497 1500 1503 1505 1507 1509 1511 1514 1515 1517 1519 1521 1523 1524 1526 1528 1530 1531 1533 1534 1536 1537 1539 1540 1541 1542 1543 1544 1545 1545 1546 1546 1547 1547 1548 1548 1548 1548 1548 1547 1547 1547
1492 1495 1498 1500 1502 1504 1507 1509 1511 1512 1514 1516 1518 1520 1521 1523 1524 1526 1528 1530 1531 1533 1534 1536 1537 1538 1539 1540 1541 1542 1542 1543 1543 1544 1545 1545 1545 1545 1545 1545 1545 1544 1544
1490 1492 1494 1497 1499 1502 1504 1506 1508 1510 1512 1514 1515 1517 1518 1520 1522 1523 1525 1527 1528 1530 1531 1532 1533 1534 1536 1536 1537 1538 1539 1539 1540 1541 1541 1542 1542 1542 1542 1542 1542 1541 1541
1486 1489 1491 1494 1496 1498 1500 1502 1504 1507 1509 1511 1512 1514 1515 1517 1518 1520 1522 1523 1525 1527 1528 1529 1530 1531 1532 1533 1534 1535 1535 1536 1537 1537 1538 1538 1538 1538 1538 1538 1538 1538 1538
1483 1486 1488 1490 1492 1495 1497 1499 1501 1502 1504 1506 1508 1510 1512 1514 1515 1517 1518 1520 1521 1523 1524 1525 1526 1527 1528 1529 1530 1531 1532 1533 1533 1534 1534 1534 1535 1535 1534 1534 1534 1534 1534
1480 1482 1484 1487 1489 1491 1493 1495 1497 1499 1500 1502 1504 1506 1508 1510 1511 1513 1514 1515 1517 1518 1520 1521 1522 1524 1525 1526 1527 1527 1528 1529 1529 1530 1530 1530 1530 1530 1530 1531 1531 1531 1531
1476 1478 1481 1483 1485 1487 1489 1491 1493 1495 1496 1498 1499 1501 1503 1505 1506 1508 1509 1511 1513 1514 1516 1517 1519 1520 1521 1522 1522 1523 1524 1525 1525 1526 1526 1526 1526 1526 1526 1526 1527 1527 1527
1472 1475 1477 1479 1481 1483 1485 1487 1489 1491 1492 1494 1495 1497 1499 1501 1502 1504 1505 1507 1508 1510 1512 1513 1515 1516 1517 1517 1518 1519 1520 1521 1521 1522 1522 1522 1522 1522 1523 1523 1523 1523 1523
1468 1470 1473 1475 1477 1479 1481 1483 1485 1487 1489 1490 1492 1494 1496 1497 1499 1500 1501 1503 1505 1506 1508 1509 1510 1511 1512 1513 1514 1515 1516 1516 1517 1518 1518 1518 1518 1519 1519 1519 1520 1520 1519
1464 1466 1469 1471 1473 1475 1477 1479 1481 1483 1485 1486 1488 1490 1491 1493 1495 1496 1498 1499 1501 1503 1504 1505 1506 1507 1509 1510 1511 1511 1512 1513 1513 1514 1514 1514 1514 1515 1515 1515 1515 1516 1516
1460 1462 1464 1466 1469 1471 1473 1475 1477 1479 1481 1482 1484 1486 1487 1489 1491 1492 1494 1496 1497 1499 1500 1501 1502 1503 1505 1506 1507 1508 1508 1509 1510 1510 1511 1511 1511 1511 1511 1512 1512 1512 1512
1456 1458 1460 1462 1464 1466 1468 1470 1472 1475 1476 1478 1480 1481 1483 1485 1487 1489 1490 1492 1493 1495 1496 1497 1498 1499 1501 1502 1503 1504 1504 1505 1506 1506 1507 1507 1507 1507 1508 1508 1508 1508 1508
1452 1454 1456 1457 1459 1462 1464 1466 1468 1470 1472 1474 1476 1477 1479 1481 1483 1484 1486 1487 1489 1490 1492 1493 1494 1496 1497 1498 1499 1500 1501 1501 1502 1502 1503 1503 1503 1504 1504 1504 1505 1505 1505